[[{"header":{"parameterUnit":"m.s-1","parameterCategory":2,"la1":30.2991,"la2":30.254,"lo1":-89.0895,"lo2":-89.0444,"dy":0.0017,"dx":0.0017,"nx":28,"ny":28,"refTime":"2025-03-04T09:00:00:Z","depth":"0","parameterNumber":2,"parameterNumberName":"U-component_of_CURRENTS"},"data":[0,0,0,0,0,0,0,0,0,0,0,0,0,0,0,0,0,0,0,0,0,0,0,0,0,0,0,0,0,0,0,0,0,0,0,0,0,0,0,0,0,0,0,0,0,0,0,0,0,0,0,0,0,0,0,0,0,0,0.1728,0.1727,0,0.1564,0.1562,0.156,0.1465,0.1465,0.1465,0.1464,0.1419,0.1418,0.1418,0,0,0,0,0,0,0,0,0,0,0,0,0,0.1734,0.1736,0.1729,0.1727,0.1724,0.1564,0.1562,0.156,0.1466,0.1465,0.1465,0.1464,0.142,0.1419,0.1418,0,0,0,0,0,0,0,0,0,0,0,0,0,0.1668,0.1736,0.1729,0.1657,0.1649,0.1565,0.1562,0.1559,0.1466,0.1465,0.1464,0.1464,0.142,0.1419,0.1417,0.1423,0,0,0.1414,0.1413,0,0,0,0,0,0,0,0,0.1672,0.1668,0.167,0.1662,0.1653,0.1534,0.1547,0.1519,0.1466,0.1536,0.1464,0.1463,0.1469,0.1463,0.1433,0.1421,0.1419,0.1414,0.1413,0.1413,0.1412,0,0,0,0,0,0,0,0.1677,0.1673,0.1664,0.1668,0.1657,0.1555,0.1547,0.154,0.1511,0.153,0.1523,0.1503,0.1465,0.1435,0.1432,0.1418,0.1414,0.1413,0.1412,0.1412,0.138,0.138,0,0,0,0,0,0,0.1709,0.168,0.1669,0.1659,0.166,0.1557,0.1548,0.1573,0.1508,0.1496,0.1504,0.1499,0.1437,0.1433,0.143,0.1419,0.1413,0.1411,0.1411,0.138,0.138,0.138,0,0,0,0,0,0,0.1711,0.1712,0.1676,0.1661,0.165,0.1559,0.1587,0.157,0.1534,0.1487,0.1477,0.1484,0.1436,0.1432,0.1408,0.1417,0.1411,0.141,0.138,0.138,0.138,0.1406,0,0,0,0,0,0,0.1713,0.1715,0.1737,0.1666,0.1652,0.163,0.1587,0.1568,0.1523,0.1516,0.1468,0.1462,0.1435,0.141,0.1407,0.1416,0.1409,0.138,0.138,0.138,0.1406,0.1407,0.1408,0,0,0,0,0,0.1714,0.1748,0.1741,0.1738,0.1691,0.163,0.1613,0.1544,0.1523,0.151,0.1469,0.1464,0.1407,0.1408,0.1405,0.1414,0.138,0.138,0.138,0.1405,0.1407,0.1408,0,0,0,0,0,0,0.1747,0.174,0.173,0.1758,0.1701,0.1614,0.1597,0.155,0.1503,0.1503,0.1459,0.145,0.1434,0.142,0.1423,0.1403,0.1395,0.1394,0.1415,0.1417,0.1418,0.1436,0.1408,0,0,0,0,0,0.1773,0.1808,0.1757,0.1774,0.1761,0.1682,0.1648,0.1601,0.1549,0.1525,0.1486,0.1455,0.1431,0.142,0.1398,0.139,0.1395,0.1394,0.1395,0.1396,0.1408,0.1417,0.142,0.1379,0.1379,0.1379,0,0,0.1768,0.1786,0.1789,0.1784,0.1743,0.1706,0.1661,0.1619,0.158,0.1535,0.1488,0.1462,0.1429,0.1409,0.1403,0.1399,0.141,0.1396,0.1397,0.1408,0.1417,0.1421,0.1425,0.1379,0.1379,0.1379,0,0,0.1791,0.182,0.185,0.1815,0.1777,0.1729,0.1722,0.1644,0.1611,0.1562,0.1522,0.1501,0.1454,0.143,0.1414,0.1416,0.1418,0.1409,0.1431,0.1439,0.1443,0.1447,0.146,0.1465,0.1409,0.1409,0.1409,0,0.1792,0.1827,0.1833,0.1841,0.1801,0.1745,0.1716,0.1677,0.1591,0.1575,0.1556,0.149,0.1466,0.1444,0.1436,0.1422,0.1426,0.1427,0.1443,0.1446,0.145,0.1463,0.1467,0.141,0.141,0.141,0.141,0,0.1814,0.1828,0.1839,0.1842,0.1805,0.177,0.1716,0.1687,0.1646,0.16,0.1572,0.1532,0.1496,0.1484,0.1457,0.1464,0.146,0.1445,0.1443,0.1456,0.1468,0.1473,0.1412,0.1412,0.1411,0.1411,0,0,0.1826,0.1854,0.1843,0.1837,0.1797,0.1759,0.1733,0.1681,0.1665,0.1613,0.1592,0.1551,0.1541,0.1523,0.1495,0.1498,0.1521,0.1482,0.1482,0.1504,0.1545,0.1581,0.1589,0.1508,0.1509,0.1509,0.1545,0,0.1824,0.1848,0.1846,0.1801,0.1794,0.1747,0.1721,0.1676,0.1646,0.1622,0.1604,0.1578,0.1553,0.1542,0.1543,0.1522,0.1533,0.1513,0.1522,0.1523,0.156,0.1596,0.1718,0.1764,0.155,0.1551,0.1551,0,0.1819,0.1844,0.1834,0.1803,0.1791,0.1756,0.1709,0.1676,0.1657,0.1643,0.1634,0.1616,0.1612,0.1591,0.159,0.1577,0.157,0.1559,0.156,0.1591,0.1568,0.1715,0.178,0.1788,0.1558,0.1557,0.1557,0,0.1829,0.1805,0.1805,0.1787,0.1765,0.1748,0.1714,0.1688,0.1672,0.1667,0.1666,0.1658,0.1653,0.165,0.1629,0.1612,0.1635,0.1607,0.1637,0.1639,0.1746,0.1756,0.1831,0.1623,0.1623,0.1623,0.1623,0,0.1845,0.183,0.1808,0.1819,0.1778,0.1756,0.1731,0.1707,0.1699,0.1688,0.1684,0.1685,0.1667,0.1671,0.1655,0.1672,0.166,0.1661,0.1659,0.1758,0.1768,0.178,0.169,0.1624,0.1624,0.1624,0.1624,0,0.1894,0.188,0.1867,0.1833,0.1805,0.1779,0.1728,0.1713,0.1717,0.1708,0.171,0.171,0.173,0.1721,0.1718,0.1709,0.1682,0.172,0.1841,0.1852,0.1889,0.1794,0.1605,0.1587,0.1772,0.1773,0.1774,0,0.1914,0.1936,0.1882,0.1838,0.1828,0.1781,0.1745,0.1723,0.1708,0.172,0.1713,0.1745,0.1771,0.1802,0.1835,0.1859,0.1725,0.1932,0.1923,0.193,0.1822,0.1582,0.1563,0.2075,0.2078,0.2081,0.2083,0,0.1983,0.1979,0.1983,0.1878,0.1817,0.1755,0.1708,0.1703,0.1685,0.1705,0.1724,0.1764,0.1855,0.1973,0.2019,0.2015,0.1874,0.1988,0.1978,0.2056,0.1816,0.1788,0.1998,0.2108,0.2105,0.2103,0.2102,0.2101,0.2022,0.2012,0.1991,0.1874,0.1799,0.1716,0.1666,0.1655,0.1648,0.1682,0.1739,0.1849,0.2098,0.2219,0.2165,0.2246,0.2023,0.2256,0.2138,0.1892,0.1875,0.2135,0.2244,0.2242,0.2241,0.224,0.2239,0,0.2052,0.2038,0.1954,0.1822,0.1718,0.1684,0.1615,0.1583,0.1578,0.1729,0.1796,0.2118,0.2295,0.2404,0.2562,0.2474,0.2286,0.2371,0.2124,0.2102,0.2391,0.2419,0.2596,0.2596,0.2596,0.2596,0.2596,0.2596,0.2079,0.2035,0.196,0.1757,0.1659,0.1526,0.1483,0.1481,0.1572,0.1772,0.1983,0.2162,0.2403,0.2572,0.2592,0.2528,0.2282,0.215,0.2006,0.2322,0.2304,0.2287,0.2302,0.245,0.245,0.1777,0.1772,0.1768]},{"header":{"parameterUnit":"m.s-1","parameterCategory":2,"la1":30.2991,"la2":30.254,"lo1":-89.0895,"lo2":-89.0444,"dy":0.0017,"dx":0.0017,"nx":28,"ny":28,"refTime":"2025-03-04T09:00:00:Z","depth":"0","parameterNumber":3,"parameterNumberName":"V-component_of_CURRENTS"},"data":[0,0,0,0,0,0,0,0,0,0,0,0,0,0,0,0,0,0,0,0,0,0,0,0,0,0,0,0,0,0,0,0,0,0,0,0,0,0,0,0,0,0,0,0,0,0,0,0,0,0,0,0,0,0,0,0,0,0,0.0403,0.0403,0,0.0462,0.0463,0.0463,0.0487,0.0487,0.0488,0.0488,0.0522,0.0522,0.0523,0,0,0,0,0,0,0,0,0,0,0,0,0,0.0341,0.0342,0.0403,0.0404,0.0405,0.0462,0.0463,0.0463,0.0487,0.0487,0.0488,0.0488,0.0521,0.0522,0.0523,0,0,0,0,0,0,0,0,0,0,0,0,0,0.0378,0.0342,0.0402,0.0425,0.0428,0.0462,0.0463,0.0463,0.0487,0.0487,0.0488,0.0488,0.0521,0.0522,0.0524,0.0528,0,0,0.0527,0.0528,0,0,0,0,0,0,0,0,0.0376,0.038,0.0421,0.0424,0.0427,0.047,0.0454,0.0485,0.0487,0.0462,0.0488,0.0488,0.0504,0.0506,0.0514,0.053,0.0531,0.0527,0.0528,0.0529,0.0529,0,0,0,0,0,0,0,0.0374,0.0378,0.0424,0.0422,0.0426,0.0444,0.0449,0.046,0.0479,0.0464,0.0467,0.0478,0.0505,0.0513,0.0515,0.0532,0.0527,0.0528,0.0529,0.053,0.0556,0.0556,0,0,0,0,0,0,0.037,0.0375,0.0422,0.0426,0.0405,0.0445,0.045,0.0454,0.0479,0.0484,0.0477,0.0479,0.051,0.0513,0.0516,0.0532,0.0529,0.053,0.053,0.0556,0.0556,0.0556,0,0,0,0,0,0,0.0368,0.0373,0.0419,0.0404,0.0412,0.0446,0.045,0.0455,0.0465,0.049,0.0494,0.0483,0.0511,0.0514,0.0528,0.0533,0.053,0.0531,0.0556,0.0556,0.0556,0.0559,0,0,0,0,0,0,0.0366,0.0372,0.0372,0.0404,0.0413,0.0441,0.045,0.0456,0.0473,0.0475,0.0496,0.0499,0.0511,0.0526,0.0529,0.0535,0.0532,0.0556,0.0556,0.0556,0.0559,0.0559,0.0559,0,0,0,0,0,0.0363,0.0367,0.0371,0.0377,0.0411,0.0441,0.0447,0.047,0.0473,0.0479,0.0492,0.0499,0.0528,0.0527,0.0531,0.0537,0.0556,0.0556,0.0556,0.0559,0.0559,0.0559,0,0,0,0,0,0,0.0339,0.0371,0.0376,0.0388,0.0412,0.0446,0.0458,0.0469,0.0484,0.0486,0.0501,0.0505,0.0519,0.0525,0.0524,0.0543,0.0542,0.0543,0.0543,0.0543,0.0543,0.0557,0.0533,0,0,0,0,0,0.0333,0.0346,0.0375,0.0386,0.0397,0.0424,0.0439,0.0454,0.0475,0.0482,0.0495,0.0508,0.0521,0.0529,0.0541,0.0553,0.0558,0.0557,0.0558,0.0558,0.0571,0.0576,0.0578,0.0556,0.0556,0.0556,0,0,0.033,0.0347,0.0356,0.0382,0.0402,0.0429,0.0433,0.0457,0.0477,0.0482,0.0506,0.051,0.0524,0.0539,0.0545,0.0545,0.0564,0.0558,0.0558,0.0571,0.0576,0.0579,0.0581,0.0556,0.0556,0.0556,0,0,0.0343,0.0342,0.0364,0.0384,0.0416,0.043,0.0435,0.0466,0.0475,0.0494,0.0503,0.0511,0.053,0.0544,0.0553,0.0559,0.0564,0.0558,0.0573,0.0577,0.0579,0.0581,0.0582,0.0584,0.0558,0.0558,0.0558,0,0.0337,0.0369,0.0375,0.0404,0.0426,0.0431,0.0463,0.0471,0.0501,0.0512,0.0502,0.0532,0.0536,0.0564,0.0564,0.0561,0.0563,0.0571,0.0578,0.058,0.0582,0.0583,0.0585,0.0559,0.0559,0.0559,0.0559,0,0.0373,0.04,0.0414,0.045,0.0466,0.0493,0.0509,0.0518,0.052,0.0533,0.0551,0.0552,0.0575,0.0568,0.0569,0.0587,0.0583,0.0576,0.0579,0.0585,0.0585,0.0587,0.0559,0.0559,0.0559,0.0559,0,0,0.0366,0.0429,0.0435,0.0467,0.0495,0.0517,0.0534,0.0562,0.0584,0.0582,0.0612,0.0613,0.0609,0.0618,0.0614,0.0612,0.0615,0.06,0.06,0.0604,0.0624,0.062,0.0622,0.0608,0.0609,0.061,0.0615,0,0.0398,0.0466,0.0481,0.054,0.058,0.0582,0.0603,0.062,0.0624,0.0646,0.0636,0.0658,0.063,0.064,0.0632,0.0626,0.0623,0.0614,0.0616,0.0617,0.0615,0.0626,0.0723,0.0736,0.0617,0.0618,0.0618,0,0.0432,0.0479,0.0547,0.0605,0.0619,0.0642,0.0675,0.0696,0.0712,0.0716,0.0723,0.0717,0.0722,0.069,0.0679,0.0675,0.0654,0.0637,0.0637,0.064,0.0618,0.0713,0.0745,0.0732,0.0622,0.0621,0.0621,0,0.0443,0.052,0.0578,0.06,0.0661,0.068,0.0699,0.072,0.0747,0.0764,0.0783,0.0778,0.0785,0.0756,0.0713,0.0702,0.0694,0.0675,0.0652,0.0651,0.0739,0.0745,0.0766,0.0669,0.0669,0.0669,0.0669,0,0.0473,0.0519,0.0592,0.0626,0.0689,0.0711,0.0763,0.0775,0.0806,0.085,0.0825,0.0853,0.0802,0.0786,0.0738,0.0705,0.0714,0.0665,0.0657,0.074,0.0745,0.0742,0.071,0.067,0.067,0.067,0.0669,0,0.0478,0.0527,0.0606,0.068,0.0702,0.0747,0.0807,0.0847,0.0862,0.0918,0.0928,0.092,0.0901,0.0841,0.0797,0.0748,0.0738,0.0692,0.0787,0.079,0.0751,0.0715,0.0714,0.084,0.0677,0.0677,0.0677,0,0.0487,0.0531,0.0638,0.0689,0.0725,0.0792,0.0838,0.0874,0.092,0.0964,0.0997,0.0988,0.1003,0.0927,0.0851,0.078,0.0764,0.0797,0.079,0.0771,0.0726,0.0693,0.0801,0.0906,0.0908,0.091,0.0911,0,0.0512,0.0552,0.0625,0.0725,0.0792,0.0871,0.0936,0.0983,0.1032,0.1076,0.1128,0.1142,0.1083,0.1068,0.0954,0.0898,0.0857,0.0824,0.0799,0.0904,0.088,0.0992,0.0865,0.0925,0.0923,0.0922,0.0922,0.0921,0.0526,0.0592,0.0686,0.0778,0.0859,0.0948,0.1013,0.1082,0.1165,0.1258,0.1255,0.1354,0.1351,0.1222,0.1049,0.0948,0.0945,0.0949,0.0907,0.0873,0.1003,0.0891,0.0937,0.0936,0.0935,0.0934,0.0933,0,0.0559,0.0636,0.0726,0.0855,0.0943,0.0972,0.1082,0.1158,0.1263,0.1402,0.147,0.1721,0.1581,0.1445,0.1278,0.1105,0.1094,0.1024,0.103,0.1145,0.105,0.107,0.1156,0.1156,0.1156,0.1156,0.1156,0.1156,0.0579,0.0687,0.0748,0.0909,0.0988,0.111,0.1179,0.1281,0.1418,0.1699,0.1943,0.2111,0.2289,0.1603,0.1266,0.1174,0.1181,0.1057,0.1097,0.1015,0.1006,0.0997,0.101,0.1081,0.1081,0.131,0.1311,0.1312]}],[{"header":{"parameterUnit":"m.s-1","parameterCategory":2,"la1":30.2991,"la2":30.254,"lo1":-89.0895,"lo2":-89.0444,"dy":0.0017,"dx":0.0017,"nx":28,"ny":28,"refTime":"2025-03-04T09:00:00:Z","depth":"2","parameterNumber":2,"parameterNumberName":"U-component_of_CURRENTS"},"data":[0,0,0,0,0,0,0,0,0,0,0,0,0,0,0,0,0,0,0,0,0,0,0,0,0,0,0,0,0,0,0,0,0,0,0,0,0,0,0,0,0,0,0,0,0,0,0,0,0,0,0,0,0,0,0,0,0,0,0.1669,0.1668,0,0.1512,0.1511,0.1509,0.1415,0.1414,0.1414,0.1414,0.1369,0.1368,0.1367,0,0,0,0,0,0,0,0,0,0,0,0,0,0.1659,0.1661,0.1669,0.1667,0.1666,0.1513,0.1511,0.1508,0.1415,0.1414,0.1414,0.1413,0.1369,0.1368,0.1367,0,0,0,0,0,0,0,0,0,0,0,0,0,0.1599,0.1662,0.167,0.1601,0.1593,0.1513,0.151,0.1508,0.1415,0.1414,0.1414,0.1413,0.137,0.1368,0.1367,0.1372,0,0,0.1363,0.1363,0,0,0,0,0,0,0,0,0.1603,0.16,0.1613,0.1605,0.1597,0.1483,0.149,0.1468,0.1415,0.1482,0.1414,0.1413,0.1418,0.1413,0.1383,0.137,0.1368,0.1363,0.1363,0.1362,0.1362,0,0,0,0,0,0,0,0.1608,0.1605,0.1607,0.1611,0.1601,0.1499,0.1492,0.1484,0.1457,0.1476,0.1469,0.1452,0.1414,0.1384,0.1381,0.1367,0.1363,0.1362,0.1362,0.1361,0.1329,0.1329,0,0,0,0,0,0,0.1641,0.1611,0.1612,0.1602,0.1599,0.1501,0.1493,0.152,0.1455,0.1443,0.1453,0.1449,0.1386,0.1383,0.138,0.1369,0.1362,0.1361,0.136,0.133,0.1329,0.1329,0,0,0,0,0,0,0.1642,0.1645,0.1618,0.1599,0.1589,0.1504,0.1533,0.1517,0.1482,0.1436,0.1427,0.1434,0.1386,0.1381,0.1358,0.1367,0.136,0.1359,0.133,0.133,0.1329,0.1357,0,0,0,0,0,0,0.1644,0.1647,0.1663,0.1604,0.1592,0.1575,0.1533,0.1514,0.1473,0.1465,0.1418,0.1412,0.1385,0.136,0.1357,0.1366,0.1358,0.133,0.133,0.1329,0.1356,0.1358,0.1359,0,0,0,0,0,0.1645,0.1672,0.1667,0.1665,0.1624,0.1575,0.1559,0.1493,0.1473,0.1459,0.1419,0.1413,0.1357,0.1358,0.1355,0.1364,0.133,0.133,0.1329,0.1355,0.1357,0.1359,0,0,0,0,0,0,0.1664,0.1664,0.1656,0.168,0.1635,0.156,0.1545,0.1499,0.1452,0.1453,0.1408,0.14,0.1385,0.137,0.1373,0.1353,0.1345,0.1344,0.1366,0.1367,0.1369,0.1386,0.1357,0,0,0,0,0,0.1684,0.1716,0.1677,0.1694,0.1687,0.1619,0.1587,0.1545,0.1499,0.1476,0.1436,0.1405,0.1381,0.1371,0.1348,0.134,0.1345,0.1344,0.1346,0.1347,0.1358,0.1367,0.1371,0.1329,0.1329,0.1329,0,0,0.1678,0.1698,0.1701,0.17,0.1672,0.1641,0.16,0.1568,0.153,0.1485,0.1438,0.1413,0.138,0.136,0.1353,0.1349,0.1361,0.1347,0.1348,0.1359,0.1367,0.1372,0.1375,0.1328,0.1328,0.1328,0,0,0.1705,0.1729,0.1762,0.1732,0.1707,0.1662,0.1659,0.1592,0.156,0.1512,0.1473,0.1453,0.1405,0.1382,0.1365,0.1367,0.1369,0.1361,0.1383,0.1391,0.1395,0.1399,0.1412,0.1417,0.1361,0.1361,0.1361,0,0.1704,0.1741,0.175,0.1763,0.1726,0.1679,0.1657,0.162,0.1541,0.1525,0.1507,0.1441,0.1417,0.1396,0.1387,0.1374,0.1378,0.1379,0.1395,0.1399,0.1402,0.1415,0.1419,0.1362,0.1362,0.1362,0.1362,0,0.1738,0.1749,0.1766,0.1774,0.1739,0.1713,0.1664,0.1635,0.1595,0.155,0.1524,0.1484,0.1448,0.1436,0.1409,0.1417,0.1412,0.1398,0.1395,0.1408,0.142,0.1425,0.1364,0.1364,0.1363,0.1363,0,0,0.175,0.1787,0.1773,0.177,0.1734,0.1702,0.1677,0.1629,0.1614,0.1564,0.1543,0.1503,0.1493,0.1475,0.1448,0.145,0.1474,0.1435,0.1435,0.1457,0.1498,0.1532,0.154,0.1461,0.1462,0.1462,0.1498,0,0.1757,0.1788,0.1784,0.1744,0.1744,0.1696,0.167,0.1626,0.1596,0.1572,0.1555,0.153,0.1505,0.1495,0.1496,0.1476,0.1486,0.1466,0.1475,0.1475,0.1511,0.1547,0.1325,0.1342,0.1502,0.1503,0.1504,0,0.1757,0.1785,0.1782,0.175,0.1742,0.1707,0.1658,0.1626,0.1607,0.1594,0.1586,0.1568,0.1564,0.1544,0.1543,0.153,0.1523,0.1512,0.1513,0.1542,0.1519,0.1353,0.1344,0.1511,0.151,0.151,0.1509,0,0.1766,0.1746,0.175,0.1733,0.1716,0.17,0.1665,0.1639,0.1623,0.1618,0.1618,0.161,0.1606,0.1603,0.1582,0.1565,0.1587,0.156,0.1589,0.159,0.1404,0.1389,0.1576,0.1576,0.1576,0.1576,0.1575,0,0.1783,0.1769,0.1753,0.1769,0.1728,0.1708,0.1683,0.1659,0.1651,0.164,0.1637,0.1638,0.1621,0.1624,0.1608,0.1623,0.1613,0.1612,0.161,0.1409,0.1395,0.1538,0.1533,0.1577,0.1577,0.1576,0.1576,0,0.1832,0.1822,0.1815,0.1787,0.1758,0.1732,0.1681,0.1666,0.167,0.1662,0.1665,0.1665,0.1684,0.1674,0.167,0.1661,0.1666,0.167,0.1447,0.1421,0.1656,0.1652,0.1718,0.1719,0.1721,0.1722,0.1723,0,0.1852,0.1882,0.1831,0.1789,0.1782,0.1735,0.1699,0.1676,0.1662,0.1674,0.1668,0.1699,0.171,0.1739,0.1659,0.1652,0.172,0.1523,0.1466,0.1684,0.1675,0.1668,0.1662,0.1213,0.121,0.1207,0.1205,0,0.1928,0.1927,0.1936,0.1832,0.1771,0.1709,0.1663,0.1658,0.164,0.1647,0.1667,0.169,0.1676,0.1573,0.1576,0.1536,0.151,0.1477,0.1732,0.1243,0.122,0.1207,0.1215,0.1181,0.1183,0.1185,0.1187,0.1187,0.1965,0.196,0.1944,0.1828,0.1753,0.1671,0.1622,0.1566,0.1542,0.1481,0.1578,0.1524,0.1515,0.1394,0.1326,0.1252,0.1397,0.135,0.1351,0.1357,0.1325,0.1309,0.128,0.1282,0.1285,0.1287,0.1289,0,0.1936,0.199,0.1907,0.1776,0.1644,0.164,0.1571,0.1474,0.1397,0.1362,0.1335,0.1177,0.1107,0.1117,0.0938,0.096,0.0844,0.0955,0.0791,0.0817,0.084,0.0774,0.0586,0.0584,0.0583,0.0581,0,0,0.195,0.1893,0.1823,0.1636,0.1579,0.1417,0.1374,0.1255,0.1177,0.1047,0.0982,0.0996,0.1085,0.0815,0.0774,0.0673,0.0725,0.0611,0.1172,0.1006,0.1026,0.1069,0.1001,0,0,0,0,0]},{"header":{"parameterUnit":"m.s-1","parameterCategory":2,"la1":30.2991,"la2":30.254,"lo1":-89.0895,"lo2":-89.0444,"dy":0.0017,"dx":0.0017,"nx":28,"ny":28,"refTime":"2025-03-04T09:00:00:Z","depth":"2","parameterNumber":3,"parameterNumberName":"V-component_of_CURRENTS"},"data":[0,0,0,0,0,0,0,0,0,0,0,0,0,0,0,0,0,0,0,0,0,0,0,0,0,0,0,0,0,0,0,0,0,0,0,0,0,0,0,0,0,0,0,0,0,0,0,0,0,0,0,0,0,0,0,0,0,0,0.0406,0.0407,0,0.0464,0.0465,0.0465,0.0488,0.0489,0.0489,0.0489,0.0521,0.0522,0.0522,0,0,0,0,0,0,0,0,0,0,0,0,0,0.0345,0.0345,0.0406,0.0407,0.0408,0.0464,0.0465,0.0465,0.0488,0.0489,0.0489,0.0489,0.0521,0.0522,0.0522,0,0,0,0,0,0,0,0,0,0,0,0,0,0.0382,0.0346,0.0406,0.0428,0.0431,0.0464,0.0465,0.0465,0.0488,0.0489,0.0489,0.0489,0.052,0.0521,0.0523,0.0527,0,0,0.0526,0.0527,0,0,0,0,0,0,0,0,0.0379,0.0383,0.0424,0.0427,0.043,0.0471,0.0455,0.0486,0.0488,0.0464,0.0489,0.0489,0.0503,0.0506,0.0513,0.0529,0.053,0.0526,0.0527,0.0527,0.0528,0,0,0,0,0,0,0,0.0377,0.0381,0.0426,0.0425,0.0428,0.0446,0.045,0.0461,0.048,0.0466,0.0469,0.0479,0.0504,0.0512,0.0514,0.0531,0.0526,0.0527,0.0528,0.0528,0.0555,0.0555,0,0,0,0,0,0,0.0373,0.0379,0.0425,0.0428,0.0407,0.0447,0.0452,0.0456,0.048,0.0485,0.0479,0.048,0.051,0.0513,0.0516,0.0531,0.0527,0.0529,0.0529,0.0555,0.0555,0.0555,0,0,0,0,0,0,0.0371,0.0376,0.0422,0.0407,0.0415,0.0447,0.0452,0.0457,0.0467,0.0491,0.0494,0.0484,0.051,0.0514,0.0527,0.0532,0.0529,0.053,0.0555,0.0555,0.0555,0.0557,0,0,0,0,0,0,0.0369,0.0375,0.0376,0.0407,0.0415,0.0443,0.0452,0.0458,0.0474,0.0476,0.0496,0.05,0.0511,0.0525,0.0528,0.0534,0.0531,0.0555,0.0555,0.0555,0.0557,0.0557,0.0557,0,0,0,0,0,0.0367,0.0372,0.0376,0.0382,0.0416,0.0444,0.0449,0.0472,0.0474,0.048,0.0493,0.0499,0.0527,0.0526,0.053,0.0536,0.0555,0.0555,0.0555,0.0557,0.0557,0.0557,0,0,0,0,0,0,0.0344,0.0376,0.0381,0.0394,0.0416,0.0449,0.046,0.047,0.0485,0.0486,0.0501,0.0505,0.0519,0.0524,0.0523,0.0542,0.0541,0.0542,0.0542,0.0542,0.0542,0.0555,0.0532,0,0,0,0,0,0.0339,0.0354,0.0382,0.0392,0.0403,0.0428,0.0442,0.0456,0.0476,0.0483,0.0496,0.0508,0.0521,0.0529,0.054,0.0551,0.0556,0.0556,0.0556,0.0556,0.0568,0.0573,0.0575,0.0555,0.0555,0.0555,0,0,0.0337,0.0354,0.0364,0.0389,0.0407,0.0433,0.0436,0.0458,0.0478,0.0483,0.0506,0.051,0.0524,0.0538,0.0544,0.0544,0.0562,0.0556,0.0556,0.0569,0.0573,0.0575,0.0577,0.0555,0.0555,0.0555,0,0,0.0348,0.0349,0.0372,0.039,0.042,0.0434,0.0439,0.0467,0.0476,0.0495,0.0504,0.0511,0.053,0.0543,0.0552,0.0558,0.0562,0.0557,0.0571,0.0575,0.0577,0.0579,0.0579,0.0581,0.0558,0.0558,0.0558,0,0.0343,0.0375,0.0381,0.0409,0.043,0.0434,0.0464,0.0473,0.0501,0.0512,0.0502,0.0532,0.0535,0.0563,0.0563,0.056,0.0562,0.057,0.0576,0.0578,0.058,0.058,0.0582,0.0558,0.0558,0.0558,0.0558,0,0.0376,0.0404,0.0417,0.0453,0.0468,0.0494,0.0508,0.0517,0.0519,0.0532,0.055,0.055,0.0573,0.0566,0.0567,0.0585,0.058,0.0574,0.0577,0.0582,0.0581,0.0583,0.0558,0.0558,0.0558,0.0558,0,0,0.0369,0.0431,0.0437,0.0469,0.0496,0.0517,0.0533,0.056,0.058,0.0579,0.0607,0.0609,0.0605,0.0614,0.0611,0.0608,0.061,0.0597,0.0597,0.06,0.0618,0.0615,0.0617,0.0604,0.0605,0.0605,0.0609,0,0.0399,0.0466,0.0481,0.0538,0.0577,0.0579,0.0599,0.0616,0.062,0.064,0.063,0.0652,0.0625,0.0635,0.0627,0.0621,0.0617,0.061,0.0611,0.0611,0.061,0.062,0.0563,0.0562,0.0611,0.0611,0.0612,0,0.0431,0.0478,0.0544,0.0602,0.0615,0.0637,0.0669,0.069,0.0705,0.0708,0.0714,0.0709,0.0713,0.0682,0.0671,0.0668,0.0647,0.063,0.063,0.0633,0.0613,0.0566,0.0564,0.0615,0.0615,0.0615,0.0614,0,0.0442,0.0518,0.0574,0.0596,0.0656,0.0674,0.0693,0.0713,0.074,0.0755,0.0773,0.0767,0.0774,0.0745,0.0703,0.0692,0.0683,0.0665,0.0643,0.0642,0.0599,0.0594,0.0659,0.0659,0.0659,0.0659,0.0659,0,0.047,0.0517,0.0588,0.0622,0.0684,0.0705,0.0755,0.0767,0.0796,0.0839,0.0814,0.0841,0.079,0.0774,0.0727,0.0694,0.0702,0.0655,0.0648,0.0597,0.0592,0.0643,0.0641,0.0659,0.0659,0.0659,0.0659,0,0.0476,0.0524,0.0602,0.0675,0.0696,0.074,0.0799,0.0838,0.0852,0.0906,0.0915,0.0906,0.0887,0.0828,0.0783,0.0736,0.0696,0.068,0.0622,0.0608,0.0646,0.0644,0.0665,0.0665,0.0665,0.0665,0.0665,0,0.0484,0.0527,0.0634,0.0684,0.0719,0.0785,0.083,0.0864,0.0909,0.0951,0.0983,0.0972,0.0976,0.0901,0.0788,0.0705,0.0713,0.0625,0.0598,0.0659,0.0649,0.0647,0.0645,0.0533,0.0532,0.0531,0.0531,0,0.0509,0.0548,0.0621,0.0719,0.0786,0.0863,0.0926,0.0972,0.1019,0.105,0.11,0.1102,0.1009,0.0893,0.0764,0.0699,0.0632,0.0608,0.0687,0.0547,0.0537,0.0527,0.0528,0.0523,0.0524,0.0524,0.0525,0.0525,0.0523,0.0587,0.0681,0.0772,0.0851,0.0939,0.1003,0.1036,0.1103,0.1133,0.1151,0.1136,0.1002,0.0818,0.0685,0.056,0.0598,0.0551,0.0552,0.0555,0.0545,0.0537,0.0521,0.0521,0.0522,0.0523,0.0523,0,0.0552,0.0631,0.0721,0.0847,0.0922,0.0963,0.107,0.1099,0.1145,0.117,0.1169,0.1044,0.0891,0.0777,0.0564,0.0454,0.042,0.0431,0.04,0.0408,0.0416,0.0398,0.0334,0.0334,0.0333,0.0333,0,0,0.0572,0.0674,0.0735,0.0881,0.0964,0.1059,0.1126,0.114,0.1167,0.1169,0.1163,0.1083,0.0964,0.0764,0.0578,0.0471,0.0476,0.0445,0.0604,0.0596,0.0605,0.0487,0.047,0,0,0,0,0]}],[{"header":{"parameterUnit":"m.s-1","parameterCategory":2,"la1":30.2991,"la2":30.254,"lo1":-89.0895,"lo2":-89.0444,"dy":0.0017,"dx":0.0017,"nx":28,"ny":28,"refTime":"2025-03-04T09:00:00:Z","depth":"4","parameterNumber":2,"parameterNumberName":"U-component_of_CURRENTS"},"data":[0,0,0,0,0,0,0,0,0,0,0,0,0,0,0,0,0,0,0,0,0,0,0,0,0,0,0,0,0,0,0,0,0,0,0,0,0,0,0,0,0,0,0,0,0,0,0,0,0,0,0,0,0,0,0,0,0,0,0.0363,0.0365,0,0.0504,0.0505,0.0506,0.0563,0.0563,0.0563,0.0563,0.059,0.0591,0.0591,0,0,0,0,0,0,0,0,0,0,0,0,0,0.0308,0.0307,0.0363,0.0365,0.0367,0.0504,0.0505,0.0506,0.0563,0.0563,0.0563,0.0563,0.059,0.0591,0.0591,0,0,0,0,0,0,0,0,0,0,0,0,0,0.0373,0.0307,0.0362,0.0415,0.0422,0.0503,0.0505,0.0507,0.0562,0.0563,0.0563,0.0563,0.059,0.0591,0.0591,0.0594,0,0,0.0594,0.0595,0,0,0,0,0,0,0,0,0.0369,0.0374,0.0405,0.0412,0.0419,0.052,0.0496,0.0532,0.0562,0.0504,0.0563,0.0563,0.0559,0.0563,0.0583,0.0595,0.0596,0.0594,0.0595,0.0595,0.0596,0,0,0,0,0,0,0,0.0364,0.037,0.0413,0.0408,0.0416,0.0489,0.0497,0.0504,0.0523,0.0509,0.0515,0.0538,0.0562,0.0582,0.0584,0.0596,0.0594,0.0595,0.0596,0.0596,0.0666,0.0667,0,0,0,0,0,0,0.0348,0.0364,0.0409,0.0418,0.04,0.049,0.0498,0.0484,0.0525,0.0534,0.0538,0.0541,0.0581,0.0583,0.0585,0.0637,0.0595,0.0596,0.0597,0.0664,0.0666,0.0667,0,0,0,0,0,0,0.0345,0.0349,0.0403,0.0401,0.0414,0.049,0.0474,0.0486,0.0526,0.055,0.0555,0.0567,0.0581,0.0584,0.0616,0.0637,0.0597,0.0597,0.0663,0.0665,0.0667,0.071,0,0,0,0,0,0,0.0342,0.0346,0.0328,0.0398,0.0413,0.0465,0.0475,0.0489,0.0541,0.0546,0.0576,0.0578,0.0581,0.0615,0.0617,0.0637,0.0598,0.0661,0.0664,0.0666,0.0707,0.0714,0.0719,0,0,0,0,0,0.0339,0.0318,0.0325,0.0332,0.0385,0.0467,0.0481,0.0534,0.0543,0.0567,0.059,0.0578,0.0631,0.0617,0.0619,0.064,0.066,0.0663,0.0666,0.0705,0.0712,0.0719,0,0,0,0,0,0,0.0314,0.0324,0.0334,0.0323,0.0396,0.0479,0.0507,0.0543,0.0583,0.0585,0.0596,0.06,0.0637,0.0633,0.0617,0.0668,0.0643,0.0646,0.0672,0.0679,0.0685,0.0685,0.0599,0,0,0,0,0,0.0291,0.0261,0.0325,0.0327,0.0356,0.0433,0.0471,0.0515,0.0565,0.0585,0.0609,0.0628,0.0649,0.066,0.0678,0.0703,0.0692,0.0718,0.0723,0.0728,0.0731,0.0742,0.0748,0.0677,0.0677,0.0677,0,0,0.0304,0.0292,0.0291,0.0318,0.0373,0.0436,0.0455,0.0526,0.0579,0.0578,0.0639,0.0651,0.0662,0.0698,0.0713,0.0698,0.0742,0.0732,0.0736,0.0736,0.0745,0.0752,0.0758,0.0679,0.0678,0.0678,0,0,0.0312,0.0288,0.0277,0.033,0.0398,0.0445,0.0468,0.0558,0.0591,0.0654,0.0665,0.0694,0.0728,0.0746,0.0754,0.0801,0.0776,0.0803,0.083,0.0841,0.0846,0.0851,0.084,0.0843,0.0803,0.0803,0.0803,0,0.0332,0.0311,0.0305,0.0331,0.0388,0.045,0.0514,0.0559,0.0651,0.0674,0.0678,0.0743,0.0753,0.0792,0.0813,0.0814,0.0806,0.0801,0.0847,0.0852,0.0856,0.0843,0.0847,0.0806,0.0805,0.0805,0.0805,0,0.0341,0.0354,0.0369,0.0398,0.0453,0.0525,0.0594,0.0642,0.0682,0.0727,0.078,0.0801,0.0836,0.0845,0.0844,0.0882,0.0861,0.0855,0.0827,0.0866,0.085,0.0852,0.0809,0.0808,0.0807,0.0807,0,0,0.0358,0.0366,0.039,0.0415,0.0499,0.0554,0.0622,0.0702,0.0744,0.0803,0.0852,0.0893,0.0898,0.0908,0.0911,0.0921,0.0944,0.0902,0.0901,0.0885,0.0951,0.0873,0.0868,0.0944,0.0945,0.0945,0.0924,0,0.0397,0.0425,0.0434,0.0532,0.0572,0.0637,0.0695,0.0766,0.0813,0.0867,0.0886,0.093,0.0923,0.0939,0.0952,0.0949,0.0954,0.0949,0.092,0.0919,0.0841,0.087,0.0948,0.0926,0.0927,0.0927,0.0927,0,0.0426,0.0434,0.0502,0.0569,0.0599,0.0666,0.0761,0.0823,0.089,0.092,0.0958,0.0972,0.1003,0.0988,0.0999,0.0995,0.0979,0.0969,0.0968,0.0882,0.0846,0.0881,0.0932,0.0931,0.0931,0.0931,0.093,0,0.0413,0.0501,0.0539,0.0577,0.0656,0.0703,0.0762,0.0841,0.0889,0.0953,0.0981,0.1016,0.1033,0.103,0.1009,0.1009,0.1004,0.0998,0.0912,0.0905,0.0961,0.0956,0.1005,0.1005,0.1005,0.1005,0.1005,0,0.0412,0.0457,0.0543,0.056,0.0646,0.0707,0.0791,0.0845,0.092,0.0968,0.1006,0.1031,0.1046,0.1042,0.1021,0.0965,0.1012,0.0918,0.0899,0.0979,0.0976,0.0962,0.0957,0.1004,0.1004,0.1004,0.1004,0,0.034,0.0401,0.047,0.058,0.0625,0.0689,0.0807,0.0858,0.0926,0.0988,0.1007,0.105,0.1038,0.1029,0.1015,0.0968,0.0931,0.0899,0.0972,0.0958,0.0822,0.0821,0.0805,0.0802,0.08,0.0798,0.0796,0,0.0285,0.0296,0.0469,0.0543,0.059,0.0694,0.0759,0.0854,0.0905,0.0987,0.1007,0.1021,0.1033,0.0949,0.0943,0.0885,0.0871,0.084,0.0846,0.0821,0.0805,0.0806,0.0808,0.0792,0.0791,0.0791,0.079,0,0.017,0.025,0.0317,0.0485,0.0594,0.0687,0.0784,0.0818,0.0917,0.0969,0.0984,0.0963,0.0941,0.0907,0.0859,0.0822,0.0857,0.0815,0.082,0.0825,0.0805,0.0792,0.0796,0.0782,0.0783,0.0784,0.0784,0,0.0119,0.0166,0.03,0.0451,0.0575,0.067,0.0726,0.0793,0.0852,0.0936,0.0931,0.0933,0.095,0.0873,0.0834,0.0783,0.0768,0.0736,0.0745,0.0754,0.0741,0.0708,0.0641,0,0,0,0,0,0.0097,0.0133,0.0255,0.0446,0.0557,0.0634,0.0742,0.0795,0.0877,0.0869,0.0904,0.0879,0.082,0.0815,0.0747,0.0791,0.0764,0.0705,0.0732,0.0736,0.0746,0.0732,0,0,0,0,0,0,0.0074,0.0146,0.0239,0.0402,0.0508,0.0627,0.0693,0.0752,0.0759,0.0821,0.0795,0.0815,0.0769,0.0842,0.0725,0.0718,0.0714,0.07,0.0697,0.0731,0.0739,0.0747,0.0736,0,0,0,0,0]},{"header":{"parameterUnit":"m.s-1","parameterCategory":2,"la1":30.2991,"la2":30.254,"lo1":-89.0895,"lo2":-89.0444,"dy":0.0017,"dx":0.0017,"nx":28,"ny":28,"refTime":"2025-03-04T09:00:00:Z","depth":"4","parameterNumber":3,"parameterNumberName":"V-component_of_CURRENTS"},"data":[0,0,0,0,0,0,0,0,0,0,0,0,0,0,0,0,0,0,0,0,0,0,0,0,0,0,0,0,0,0,0,0,0,0,0,0,0,0,0,0,0,0,0,0,0,0,0,0,0,0,0,0,0,0,0,0,0,0,0.0564,0.0565,0,0.0572,0.0572,0.0572,0.0566,0.0566,0.0566,0.0565,0.0553,0.0553,0.0553,0,0,0,0,0,0,0,0,0,0,0,0,0,0.0483,0.0485,0.0564,0.0565,0.0565,0.0572,0.0572,0.0572,0.0566,0.0566,0.0566,0.0565,0.0553,0.0553,0.0553,0,0,0,0,0,0,0,0,0,0,0,0,0,0.0507,0.0486,0.0564,0.0563,0.0563,0.0572,0.0572,0.0572,0.0566,0.0566,0.0565,0.0565,0.0554,0.0553,0.0553,0.0556,0,0,0.0552,0.0552,0,0,0,0,0,0,0,0,0.0505,0.051,0.0563,0.0563,0.0564,0.0569,0.0539,0.0566,0.0566,0.0564,0.0565,0.0565,0.0558,0.0557,0.0558,0.0556,0.0555,0.0552,0.0552,0.0552,0.0552,0,0,0,0,0,0,0,0.0504,0.0509,0.0566,0.0564,0.0564,0.0542,0.0546,0.0544,0.0561,0.0564,0.0564,0.0567,0.0557,0.0558,0.0557,0.0555,0.0552,0.0552,0.0552,0.0552,0.0559,0.056,0,0,0,0,0,0,0.0509,0.0508,0.0566,0.0567,0.0535,0.0544,0.0548,0.0566,0.0561,0.0561,0.0567,0.0566,0.0559,0.0558,0.0557,0.0559,0.0552,0.0552,0.0552,0.0559,0.0559,0.056,0,0,0,0,0,0,0.0508,0.0515,0.0566,0.0537,0.0542,0.0546,0.0567,0.0567,0.0567,0.0564,0.0563,0.0567,0.0558,0.0557,0.056,0.0559,0.0552,0.0551,0.0559,0.0559,0.056,0.0565,0,0,0,0,0,0,0.0506,0.0515,0.0531,0.0538,0.0544,0.057,0.0567,0.0567,0.057,0.0569,0.0564,0.0562,0.0558,0.056,0.056,0.0558,0.0551,0.0558,0.0559,0.0559,0.0564,0.0566,0.0567,0,0,0,0,0,0.0503,0.0525,0.0532,0.0539,0.0566,0.057,0.057,0.0571,0.057,0.0569,0.057,0.0562,0.0564,0.056,0.0559,0.0558,0.0558,0.0559,0.0559,0.0564,0.0565,0.0567,0,0,0,0,0,0,0.0489,0.0527,0.0534,0.0565,0.0566,0.0569,0.0572,0.0572,0.0572,0.0572,0.0568,0.0567,0.0568,0.0565,0.0562,0.0563,0.0559,0.056,0.0563,0.0564,0.0565,0.0554,0.0551,0,0,0,0,0,0.0497,0.053,0.0544,0.0566,0.0569,0.057,0.0573,0.0571,0.0573,0.0573,0.0571,0.0571,0.0572,0.057,0.057,0.057,0.0557,0.057,0.0571,0.0572,0.0563,0.055,0.0549,0.0562,0.0562,0.0562,0,0,0.0494,0.0522,0.0538,0.0566,0.0568,0.0568,0.057,0.0573,0.0571,0.0572,0.0571,0.0575,0.0574,0.0576,0.0576,0.0572,0.0561,0.0573,0.0573,0.0564,0.0551,0.0549,0.0548,0.0563,0.0563,0.0563,0,0,0.0498,0.0531,0.0552,0.0557,0.0568,0.0569,0.057,0.0573,0.0573,0.0575,0.0576,0.0578,0.0581,0.0577,0.0576,0.0583,0.057,0.0589,0.0583,0.0571,0.0569,0.0567,0.0548,0.0544,0.0588,0.0588,0.0588,0,0.0489,0.0525,0.0552,0.0562,0.0564,0.0569,0.0567,0.0568,0.0571,0.0571,0.0574,0.0577,0.0577,0.0574,0.058,0.0584,0.0575,0.0577,0.0571,0.0569,0.0567,0.0547,0.0544,0.0588,0.0588,0.0588,0.0588,0,0.0502,0.0523,0.053,0.0554,0.0556,0.0557,0.056,0.0562,0.0565,0.0566,0.0567,0.057,0.0571,0.0575,0.0579,0.0572,0.0569,0.0575,0.0565,0.0566,0.0545,0.0541,0.0589,0.0588,0.0588,0.0588,0,0,0.049,0.0534,0.0532,0.0542,0.0552,0.0555,0.0553,0.0554,0.0554,0.0556,0.0552,0.0558,0.0562,0.0561,0.0568,0.0558,0.0542,0.0564,0.0563,0.0539,0.0511,0.05,0.0494,0.0551,0.055,0.055,0.0501,0,0.0483,0.051,0.0529,0.0532,0.054,0.0545,0.0545,0.0547,0.0548,0.0547,0.0546,0.0549,0.0556,0.0562,0.0552,0.0546,0.0532,0.0554,0.0517,0.0516,0.0501,0.0489,0.0548,0.0498,0.0497,0.0496,0.0496,0,0.048,0.0504,0.0517,0.0536,0.0537,0.054,0.0543,0.0545,0.0543,0.0544,0.0541,0.0543,0.0531,0.054,0.0512,0.0529,0.0518,0.051,0.0508,0.049,0.0497,0.0497,0.0488,0.0488,0.0489,0.049,0.049,0,0.0465,0.0488,0.0506,0.0511,0.0533,0.0537,0.0544,0.0545,0.0551,0.0545,0.0542,0.0529,0.0523,0.0507,0.0491,0.0503,0.0456,0.0468,0.0442,0.0441,0.0464,0.0466,0.0441,0.0441,0.0441,0.0442,0.0442,0,0.0455,0.0467,0.0505,0.0514,0.0531,0.054,0.0552,0.0554,0.0555,0.0558,0.0546,0.0534,0.0516,0.049,0.0479,0.0442,0.0443,0.043,0.0425,0.0468,0.0471,0.046,0.0463,0.044,0.044,0.0441,0.0441,0,0.044,0.0467,0.0491,0.0519,0.0531,0.0544,0.0569,0.0578,0.0571,0.057,0.0569,0.0534,0.0497,0.0473,0.0437,0.0421,0.0392,0.0381,0.0416,0.0417,0.0387,0.0391,0.0339,0.0338,0.0338,0.0337,0.0336,0,0.0434,0.0451,0.0496,0.052,0.0538,0.0564,0.0586,0.0593,0.0598,0.0568,0.0563,0.0521,0.0498,0.0426,0.0403,0.0363,0.0366,0.0343,0.0373,0.0375,0.0376,0.0381,0.0385,0.0335,0.0335,0.0335,0.0335,0,0.0426,0.0452,0.0478,0.0527,0.056,0.0592,0.0615,0.0615,0.0613,0.0605,0.0554,0.0511,0.046,0.0414,0.0381,0.0357,0.0353,0.0335,0.0337,0.0365,0.0369,0.0372,0.0378,0.0332,0.0332,0.0333,0.0333,0,0.042,0.0442,0.0488,0.053,0.0576,0.0607,0.0617,0.0618,0.0619,0.0581,0.0561,0.0503,0.047,0.0409,0.0379,0.0352,0.035,0.0345,0.0346,0.0349,0.0372,0.0381,0.0332,0,0,0,0,0,0.0414,0.0451,0.0488,0.0538,0.0583,0.0615,0.0635,0.0638,0.0628,0.0597,0.0578,0.0532,0.046,0.042,0.0391,0.0376,0.0353,0.034,0.035,0.0318,0.0321,0.0346,0,0,0,0,0,0,0.0412,0.0458,0.0487,0.0543,0.0579,0.0628,0.0645,0.0637,0.0615,0.0591,0.0554,0.0526,0.0461,0.0484,0.0392,0.0381,0.0381,0.0308,0.0307,0.0316,0.0319,0.0321,0.0349,0,0,0,0,0]}]]